| time (UTC) | temp F | wind direction | speed knots | gust knots | rain 1hr in | rain 24hr in | rain mn in | humidity % | barometer mb |
| 20260508064920 | 52 | 337 | 0.0 | 0.0 | 0.00 | 0.00 | 0.00 | 99 | 1014.8 |
| 20260508064417 | 52 | 337 | 0.0 | 0.0 | 0.00 | 0.00 | 0.00 | 99 | 1014.8 |
| 20260508063915 | 52 | 337 | 0.0 | 0.0 | 0.00 | 0.00 | 0.00 | 99 | 1014.8 |
| 20260508063412 | 52 | 337 | 0.0 | 0.0 | 0.00 | 0.00 | 0.00 | 99 | 1014.6 |
| 20260508062909 | 52 | 337 | 0.0 | 0.0 | 0.00 | 0.00 | 0.00 | 99 | 1014.6 |
| 20260508062407 | 52 | 337 | 0.0 | 0.0 | 0.00 | 0.00 | 0.00 | 99 | 1014.7 |
| 20260508061904 | 52 | 337 | 0.0 | 0.0 | 0.00 | 0.00 | 0.00 | 99 | 1014.7 |
| 20260508061401 | 52 | 337 | 0.0 | 0.0 | 0.00 | 0.00 | 0.00 | 99 | 1014.7 |
| 20260508060857 | 52 | 337 | 0.0 | 0.0 | 0.00 | 0.00 | 0.00 | 99 | 1014.7 |
| 20260508060355 | 52 | 337 | 0.0 | 0.0 | 0.00 | 0.00 | 0.00 | 99 | 1014.8 |
| 20260508055850 | 52 | 337 | 0.0 | 0.0 | 0.00 | 0.00 | 0.00 | 99 | 1014.6 |
| 20260508055348 | 53 | 337 | 0.0 | 0.0 | 0.00 | 0.00 | 0.00 | 99 | 1014.5 |
| 20260508054844 | 53 | 337 | 0.0 | 0.0 | 0.00 | 0.00 | 0.00 | 99 | 1014.6 |
| 20260508054341 | 53 | 337 | 0.0 | 0.0 | 0.00 | 0.00 | 0.00 | 99 | 1014.6 |
| 20260508053838 | 53 | 337 | 0.0 | 0.0 | 0.00 | 0.00 | 0.00 | 99 | 1014.6 |
| 20260508053336 | 53 | 339 | 0.0 | 0.0 | 0.00 | 0.00 | 0.00 | 99 | 1014.5 |
| 20260508052833 | 53 | 339 | 0.0 | 0.0 | 0.00 | 0.00 | 0.00 | 99 | 1014.4 |
| 20260508052330 | 53 | 339 | 0.0 | 0.0 | 0.00 | 0.00 | 0.00 | 99 | 1014.5 |
| 20260508051826 | 53 | 339 | 0.0 | 0.0 | 0.00 | 0.00 | 0.00 | 99 | 1014.4 |
| 20260508051321 | 53 | 339 | 0.0 | 0.0 | 0.00 | 0.00 | 0.00 | 99 | 1014.5 |
| 20260508050818 | 53 | 339 | 0.0 | 0.0 | 0.00 | 0.00 | 0.00 | 99 | 1014.4 |
| 20260508050316 | 53 | 339 | 0.0 | 0.0 | 0.00 | 0.00 | 0.00 | 99 | 1014.3 |
| 20260508045811 | 54 | 339 | 0.0 | 0.0 | 0.00 | 0.00 | 0.00 | 99 | 1014.6 |
| 20260508045309 | 54 | 339 | 0.0 | 0.0 | 0.00 | 0.00 | 0.00 | 99 | 1014.7 |
| 20260508044807 | 54 | 338 | 0.0 | 0.0 | 0.00 | 0.00 | 0.00 | 99 | 1014.6 |
| 20260508044303 | 54 | 339 | 0.0 | 0.0 | 0.00 | 0.00 | 0.00 | 99 | 1014.5 |
| 20260508043759 | 54 | 339 | 0.0 | 0.0 | 0.00 | 0.00 | 0.00 | 99 | 1014.5 |
| 20260508043257 | 54 | 339 | 0.0 | 0.0 | 0.00 | 0.00 | 0.00 | 99 | 1014.6 |
| 20260508042753 | 53 | 339 | 0.0 | 0.0 | 0.00 | 0.00 | 0.00 | 99 | 1014.4 |
| 20260508042250 | 53 | 339 | 0.0 | 0.0 | 0.00 | 0.00 | 0.00 | 99 | 1014.3 |
| 20260508041747 | 54 | 339 | 0.0 | 0.0 | 0.00 | 0.00 | 0.00 | 99 | 1014.4 |
| 20260508041244 | 54 | 339 | 0.0 | 0.0 | 0.00 | 0.00 | 0.00 | 99 | 1014.5 |
| 20260508040740 | 54 | 339 | 0.0 | 0.0 | 0.00 | 0.00 | 0.00 | 99 | 1014.4 |
| 20260508040238 | 54 | 339 | 0.0 | 0.0 | 0.00 | 0.00 | 0.00 | 99 | 1014.6 |
| 20260508035735 | 54 | 339 | 0.0 | 0.0 | 0.00 | 1.56 | 1.56 | 99 | 1014.3 |
| 20260508035232 | 54 | 339 | 0.0 | 0.0 | 0.00 | 1.56 | 1.56 | 99 | 1014.5 |
| 20260508034728 | 54 | 331 | 0.0 | 0.0 | 0.00 | 1.56 | 1.56 | 99 | 1014.2 |
| 20260508034226 | 54 | 321 | 0.0 | 0.0 | 0.00 | 1.56 | 1.56 | 99 | 1014.1 |
| 20260508033723 | 54 | 318 | 0.0 | 0.0 | 0.00 | 1.56 | 1.56 | 99 | 1013.8 |
| 20260508033221 | 54 | 305 | 0.0 | 0.0 | 0.00 | 1.56 | 1.56 | 99 | 1013.9 |
| 20260508032718 | 54 | 297 | 0.0 | 0.0 | 0.00 | 1.56 | 1.56 | 99 | 1013.7 |
| 20260508032215 | 54 | 332 | 0.0 | 0.0 | 0.00 | 1.56 | 1.56 | 99 | 1014.1 |
| 20260508031712 | 54 | 324 | 0.0 | 0.0 | 0.00 | 1.56 | 1.56 | 99 | 1013.7 |
| 20260508031208 | 54 | 291 | 0.0 | 0.0 | 0.00 | 1.56 | 1.56 | 99 | 1013.6 |
| 20260508030705 | 54 | 294 | 0.0 | 0.0 | 0.00 | 1.56 | 1.56 | 99 | 1013.8 |
| 20260508030203 | 53 | 337 | 0.0 | 0.0 | 0.00 | 1.56 | 1.56 | 99 | 1013.8 |
| 20260508025658 | 53 | 337 | 0.0 | 0.9 | 0.00 | 1.56 | 1.56 | 99 | 1013.5 |
| 20260508025156 | 53 | 298 | 0.0 | 0.0 | 0.00 | 1.56 | 1.56 | 99 | 1013.5 |
| 20260508024651 | 53 | 299 | 0.0 | 0.0 | 0.00 | 1.56 | 1.56 | 99 | 1013.4 |
| 20260508024149 | 53 | 285 | 0.0 | 0.0 | 0.00 | 1.56 | 1.56 | 99 | 1013.5 |
| 20260508023645 | 54 | 294 | 0.0 | 0.0 | 0.00 | 1.56 | 1.56 | 99 | 1013.4 |
| 20260508023143 | 54 | 294 | 0.0 | 0.0 | 0.00 | 1.56 | 1.56 | 99 | 1013.5 |
| 20260508022638 | 54 | 294 | 0.0 | 0.0 | 0.00 | 1.56 | 1.56 | 99 | 1013.4 |
| 20260508022136 | 54 | 294 | 0.0 | 0.9 | 0.00 | 1.56 | 1.56 | 99 | 1013.3 |
| 20260508021632 | 54 | 310 | 0.0 | 0.0 | 0.00 | 1.56 | 1.56 | 99 | 1013.2 |
| 20260508021127 | 54 | 306 | 0.0 | 0.0 | 0.00 | 1.56 | 1.56 | 99 | 1013.0 |
| 20260508020625 | 54 | 306 | 0.0 | 0.0 | 0.00 | 1.56 | 1.56 | 99 | 1013.1 |
| 20260508020123 | 54 | 307 | 0.0 | 0.0 | 0.00 | 1.56 | 1.56 | 99 | 1013.2 |
| 20260508015620 | 54 | 339 | 0.0 | 0.0 | 0.00 | 1.56 | 1.56 | 99 | 1013.1 |
| 20260508015117 | 54 | 340 | 0.0 | 0.0 | 0.00 | 1.56 | 1.56 | 99 | 1013.3 |
| 20260508014613 | 54 | 340 | 0.0 | 0.0 | 0.00 | 1.56 | 1.56 | 99 | 1013.2 |
| 20260508014110 | 54 | 340 | 0.0 | 0.0 | 0.00 | 1.56 | 1.56 | 99 | 1013.2 |
| 20260508013606 | 54 | 340 | 0.0 | 0.0 | 0.00 | 1.56 | 1.56 | 99 | 1013.1 |
| 20260508013103 | 54 | 340 | 0.0 | 0.0 | 0.00 | 1.56 | 1.56 | 99 | 1012.7 |
| 20260508012600 | 53 | 340 | 0.0 | 0.0 | 0.00 | 1.56 | 1.56 | 99 | 1012.7 |
| 20260508012057 | 53 | 295 | 0.9 | 0.9 | 0.00 | 1.56 | 1.56 | 99 | 1012.1 |
| 20260508011556 | 54 | 287 | 0.0 | 0.9 | 0.00 | 1.56 | 1.56 | 99 | 1012.1 |
| 20260508011053 | 54 | 299 | 0.0 | 0.0 | 0.00 | 1.56 | 1.56 | 99 | 1012.5 |
| 20260508010549 | 53 | 297 | 0.0 | 0.0 | 0.00 | 1.56 | 1.56 | 99 | 1012.4 |
| 20260508010047 | 53 | 301 | 0.9 | 1.7 | 0.00 | 1.56 | 1.56 | 99 | 1012.1 |
| 20260508005543 | 54 | 305 | 0.9 | 0.9 | 0.00 | 1.56 | 1.56 | 99 | 1012.3 |
| 20260508005040 | 54 | 331 | 0.0 | 0.0 | 0.00 | 1.56 | 1.56 | 99 | 1012.5 |
| 20260508004536 | 54 | 333 | 0.0 | 0.9 | 0.07 | 1.56 | 1.56 | 99 | 1012.9 |
| 20260508004033 | 54 | 273 | 0.9 | 0.9 | 0.19 | 1.56 | 1.56 | 99 | 1012.3 |
| 20260508003529 | 54 | 284 | 1.7 | 1.7 | 0.31 | 1.55 | 1.55 | 99 | 1012.0 |
| 20260508003027 | 54 | 308 | 0.9 | 0.9 | 0.35 | 1.52 | 1.52 | 99 | 1012.7 |
| 20260508002523 | 54 | 274 | 0.0 | 1.7 | 0.40 | 1.50 | 1.50 | 99 | 1012.4 |
| 20260508002021 | 54 | 267 | 1.7 | 1.7 | 0.12 | 1.45 | 1.45 | 99 | 1012.5 |
| 20260508001516 | 54 | 56 | 1.7 | 2.6 | 0.00 | 1.43 | 1.43 | 99 | 1012.0 |
| 20260508001013 | 54 | 275 | 0.0 | 0.9 | 0.00 | 1.43 | 1.43 | 99 | 1011.6 |
| 20260508000508 | 54 | 291 | 0.9 | 1.7 | 0.00 | 1.43 | 1.43 | 99 | 1011.5 |
| 20260508000006 | 54 | 290 | 1.7 | 2.6 | 0.00 | 1.43 | 1.43 | 99 | 1011.1 |
| 20260507235502 | 54 | 302 | 0.9 | 1.7 | 0.00 | 1.43 | 1.43 | 99 | 1011.1 |
| 20260507235000 | 55 | 286 | 0.9 | 2.6 | 0.00 | 1.43 | 1.43 | 98 | 1011.2 |
| 20260507234456 | 55 | 288 | 0.0 | 0.9 | 0.00 | 1.43 | 1.43 | 98 | 1011.1 |
| 20260507233953 | 54 | 298 | 0.9 | 5.2 | 0.00 | 1.43 | 1.43 | 98 | 1011.3 |
| 20260507233450 | 54 | 304 | 1.7 | 4.3 | 0.00 | 1.43 | 1.43 | 98 | 1011.3 |
| 20260507232948 | 54 | 302 | 2.6 | 4.3 | 0.00 | 1.43 | 1.43 | 98 | 1011.3 |
| 20260507232444 | 54 | 261 | 1.7 | 7.0 | 0.00 | 1.43 | 1.43 | 97 | 1011.4 |
| 20260507231942 | 55 | 243 | 2.6 | 2.6 | 0.00 | 1.43 | 1.43 | 98 | 1011.5 |
| 20260507231438 | 55 | 280 | 2.6 | 4.3 | 0.00 | 1.43 | 1.43 | 98 | 1011.3 |
| 20260507230935 | 55 | 295 | 1.7 | 4.3 | 0.00 | 1.43 | 1.43 | 98 | 1011.1 |
| 20260507230432 | 55 | 277 | 0.9 | 5.2 | 0.00 | 1.43 | 1.43 | 98 | 1011.0 |
| 20260507225933 | 55 | 235 | 1.7 | 2.6 | 0.00 | 1.43 | 1.43 | 98 | 1011.0 |
| 20260507225429 | 55 | 205 | 2.6 | 6.1 | 0.00 | 1.43 | 1.43 | 98 | 1011.1 |
| 20260507224925 | 55 | 328 | 1.7 | 4.3 | 0.00 | 1.43 | 1.43 | 98 | 1011.0 |
| 20260507224421 | 55 | 227 | 1.7 | 4.3 | 0.00 | 1.43 | 1.43 | 98 | 1010.8 |
| 20260507223918 | 55 | 229 | 4.3 | 5.2 | 0.00 | 1.43 | 1.43 | 98 | 1010.9 |
| 20260507223414 | 55 | 279 | 2.6 | 2.6 | 0.00 | 1.43 | 1.43 | 98 | 1010.7 |
| 20260507222911 | 55 | 225 | 0.9 | 2.6 | 0.00 | 1.43 | 1.43 | 98 | 1010.7 |
| 20260507222408 | 55 | 271 | 2.6 | 2.6 | 0.00 | 1.43 | 1.43 | 99 | 1010.9 |
| 20260507221905 | 54 | 259 | 5.2 | 6.1 | 0.00 | 1.43 | 1.43 | 99 | 1010.7 |
| 20260507221401 | 54 | 250 | 0.9 | 2.6 | 0.00 | 1.43 | 1.43 | 99 | 1010.6 |
| 20260507220857 | 54 | 304 | 2.6 | 4.3 | 0.00 | 1.43 | 1.43 | 99 | 1010.7 |
| 20260507220356 | 54 | 286 | 1.7 | 7.0 | 0.00 | 1.43 | 1.43 | 99 | 1010.9 |
| 20260507215852 | 54 | 271 | 0.9 | 5.2 | 0.00 | 1.43 | 1.43 | 99 | 1010.9 |
| 20260507215349 | 54 | 278 | 0.0 | 1.7 | 0.00 | 1.43 | 1.43 | 99 | 1011.0 |
| 20260507214846 | 54 | 295 | 5.2 | 7.8 | 0.00 | 1.43 | 1.43 | 99 | 1010.9 |
| 20260507214343 | 54 | 289 | 0.9 | 4.3 | 0.00 | 1.43 | 1.43 | 99 | 1010.6 |
| 20260507213838 | 54 | 226 | 3.5 | 6.1 | 0.00 | 1.43 | 1.43 | 99 | 1010.8 |
| 20260507213335 | 54 | 305 | 0.9 | 5.2 | 0.00 | 1.43 | 1.43 | 99 | 1010.6 |
| 20260507212832 | 54 | 189 | 4.3 | 9.6 | 0.00 | 1.43 | 1.43 | 99 | 1010.4 |
| 20260507212327 | 54 | 243 | 1.7 | 8.7 | 0.00 | 1.43 | 1.43 | 99 | 1010.6 |
| 20260507211824 | 55 | 298 | 2.6 | 7.0 | 0.00 | 1.43 | 1.43 | 99 | 1010.3 |
| 20260507211321 | 54 | 277 | 2.6 | 5.2 | 0.00 | 1.43 | 1.43 | 99 | 1010.2 |
| 20260507210818 | 55 | 272 | 2.6 | 6.1 | 0.00 | 1.43 | 1.43 | 99 | 1010.2 |
| 20260507210315 | 55 | 231 | 2.6 | 5.2 | 0.00 | 1.43 | 1.43 | 99 | 1010.2 |
| 20260507205811 | 56 | 33 | 0.9 | 5.2 | 0.00 | 1.43 | 1.43 | 99 | 1010.2 |
| 20260507205309 | 56 | 115 | 2.6 | 4.3 | 0.00 | 1.43 | 1.43 | 99 | 1010.1 |
| 20260507204804 | 56 | 328 | 1.7 | 4.3 | 0.00 | 1.43 | 1.43 | 99 | 1009.8 |
| 20260507204302 | 56 | 209 | 1.7 | 1.7 | 0.00 | 1.43 | 1.43 | 99 | 1009.9 |
| 20260507203800 | 56 | 205 | 2.6 | 5.2 | 0.00 | 1.43 | 1.43 | 99 | 1010.0 |
| 20260507203258 | 56 | 293 | 0.9 | 2.6 | 0.07 | 1.43 | 1.43 | 99 | 1009.7 |
| 20260507202754 | 56 | 309 | 2.6 | 5.2 | 0.19 | 1.43 | 1.43 | 99 | 1009.8 |
| 20260507202249 | 56 | 211 | 0.9 | 1.7 | 0.19 | 1.42 | 1.42 | 99 | 1010.2 |
| 20260507201744 | 56 | 203 | 3.5 | 7.0 | 0.07 | 1.40 | 1.40 | 99 | 1009.8 |
| 20260507201241 | 57 | 276 | 0.9 | 4.3 | 0.17 | 1.39 | 1.39 | 99 | 1009.8 |
| 20260507200738 | 57 | 278 | 0.9 | 5.2 | 0.66 | 1.38 | 1.38 | 99 | 1009.7 |
| 20260507200234 | 57 | 78 | 2.6 | 2.6 | 0.73 | 1.36 | 1.36 | 99 | 1010.1 |
| 20260507195730 | 58 | 285 | 2.6 | 4.3 | 0.17 | 1.26 | 1.26 | 99 | 1009.6 |
| 20260507195228 | 58 | 230 | 2.6 | 2.6 | 0.05 | 1.24 | 1.24 | 99 | 1009.7 |
| 20260507194725 | 58 | 336 | 2.6 | 4.3 | 0.00 | 1.23 | 1.23 | 99 | 1009.7 |
| 20260507194221 | 58 | 256 | 0.9 | 4.3 | 0.00 | 1.23 | 1.23 | 99 | 1009.6 |
| 20260507193717 | 58 | 277 | 0.9 | 7.0 | 0.00 | 1.23 | 1.23 | 99 | 1009.9 |
| 20260507193214 | 58 | 287 | 2.6 | 4.3 | 0.00 | 1.23 | 1.23 | 99 | 1009.6 |
| 20260507192710 | 59 | 40 | 1.7 | 5.2 | 0.00 | 1.23 | 1.23 | 99 | 1009.6 |
| 20260507192208 | 59 | 293 | 0.9 | 4.3 | 0.00 | 1.23 | 1.23 | 99 | 1009.4 |
| 20260507191703 | 59 | 215 | 6.1 | 9.6 | 0.00 | 1.23 | 1.23 | 99 | 1009.6 |
| 20260507191201 | 60 | 290 | 1.7 | 2.6 | 0.00 | 1.23 | 1.23 | 99 | 1009.6 |
| 20260507190657 | 60 | 223 | 6.1 | 7.8 | 0.07 | 1.23 | 1.23 | 99 | 1009.5 |
| 20260507190156 | 61 | 242 | 0.9 | 4.3 | 0.35 | 1.23 | 1.23 | 99 | 1009.1 |
| 20260507185654 | 61 | 303 | 0.9 | 6.1 | 0.31 | 1.21 | 1.21 | 99 | 1008.4 |
| 20260507185150 | 62 | 282 | 2.6 | 7.0 | 0.00 | 1.16 | 1.16 | 99 | 1008.8 |
| 20260507184648 | 62 | 265 | 0.0 | 1.7 | 0.07 | 1.16 | 1.16 | 99 | 1008.8 |
| 20260507184146 | 62 | 345 | 0.9 | 2.6 | 0.00 | 1.15 | 1.15 | 99 | 1009.1 |
| 20260507183642 | 63 | 249 | 0.0 | 1.7 | 0.00 | 1.15 | 1.15 | 99 | 1009.4 |
| 20260507183139 | 64 | 225 | 1.7 | 4.3 | 0.00 | 1.15 | 1.15 | 99 | 1009.4 |
| 20260507182636 | 64 | 215 | 1.7 | 5.2 | 0.00 | 1.15 | 1.15 | 97 | 1009.0 |
| 20260507182132 | 68 | 276 | 2.6 | 7.8 | 0.00 | 1.15 | 1.15 | 97 | 1008.4 |
| 20260507181628 | 70 | 351 | 0.9 | 4.3 | 0.00 | 1.15 | 1.15 | 99 | 1008.5 |
| 20260507181125 | 70 | 78 | 0.9 | 1.7 | 0.00 | 1.15 | 1.15 | 99 | 1008.8 |
| 20260507180621 | 70 | 69 | 0.0 | 0.9 | 0.00 | 1.15 | 1.15 | 99 | 1008.7 |
| 20260507180118 | 70 | 161 | 1.7 | 1.7 | 0.00 | 1.15 | 1.15 | 99 | 1008.9 |
| 20260507175614 | 69 | 79 | 0.9 | 1.7 | 0.00 | 1.15 | 1.15 | 99 | 1009.2 |
| 20260507175112 | 69 | 51 | 1.7 | 2.6 | 0.00 | 1.15 | 1.15 | 99 | 1009.2 |
| 20260507174609 | 69 | 160 | 0.9 | 2.6 | 0.00 | 1.15 | 1.15 | 99 | 1009.1 |
| 20260507174107 | 69 | 59 | 0.0 | 1.7 | 0.00 | 1.15 | 1.15 | 99 | 1008.9 |
| 20260507173604 | 69 | 104 | 0.0 | 2.6 | 0.00 | 1.15 | 1.15 | 99 | 1008.9 |
| 20260507173100 | 69 | 92 | 0.9 | 4.3 | 0.00 | 1.15 | 1.15 | 99 | 1008.5 |
| 20260507172556 | 69 | 87 | 3.5 | 4.3 | 0.00 | 1.15 | 1.15 | 99 | 1008.9 |
| 20260507172054 | 70 | 39 | 0.0 | 2.6 | 0.00 | 1.15 | 1.15 | 99 | 1008.8 |
| 20260507171548 | 70 | 346 | 0.9 | 1.7 | 0.00 | 1.15 | 1.15 | 99 | 1008.5 |
| 20260507171046 | 69 | 3 | 0.9 | 2.6 | 0.00 | 1.15 | 1.15 | 99 | 1008.6 |
| 20260507170543 | 69 | 29 | 0.0 | 1.7 | 0.00 | 1.15 | 1.15 | 99 | 1008.7 |
| 20260507170040 | 68 | 48 | 0.0 | 0.9 | 0.00 | 1.15 | 1.15 | 99 | 1008.6 |
| 20260507165535 | 68 | 82 | 1.7 | 2.6 | 0.00 | 1.15 | 1.15 | 99 | 1009.0 |
| 20260507165032 | 68 | 61 | 0.0 | 0.9 | 0.00 | 1.15 | 1.15 | 99 | 1009.2 |
| 20260507164528 | 68 | 329 | 0.0 | 0.9 | 0.00 | 1.15 | 1.15 | 99 | 1009.3 |
| 20260507164026 | 68 | 349 | 0.9 | 2.6 | 0.00 | 1.15 | 1.15 | 99 | 1009.6 |
| 20260507163523 | 68 | 353 | 0.9 | 1.7 | 0.00 | 1.15 | 1.15 | 99 | 1009.8 |
| 20260507163021 | 68 | 10 | 0.9 | 1.7 | 0.00 | 1.15 | 1.15 | 99 | 1009.9 |
| 20260507162515 | 68 | 21 | 0.0 | 1.7 | 0.00 | 1.15 | 1.15 | 99 | 1009.9 |
| 20260507162012 | 68 | 332 | 1.7 | 2.6 | 0.00 | 1.15 | 1.15 | 99 | 1010.0 |
| 20260507161509 | 68 | 63 | 1.7 | 1.7 | 0.00 | 1.15 | 1.15 | 99 | 1010.1 |
| 20260507161006 | 68 | 359 | 0.9 | 1.7 | 0.00 | 1.15 | 1.15 | 99 | 1010.2 |
| 20260507160501 | 68 | 341 | 1.7 | 4.3 | 0.00 | 1.15 | 1.15 | 99 | 1010.5 |
| 20260507155957 | 68 | 149 | 3.5 | 5.2 | 0.00 | 1.15 | 1.15 | 99 | 1010.4 |
| 20260507155453 | 68 | 15 | 1.7 | 2.6 | 0.00 | 1.15 | 1.15 | 99 | 1010.2 |
| 20260507154950 | 68 | 338 | 0.0 | 0.0 | 0.00 | 1.15 | 1.15 | 99 | 1009.9 |
| 20260507154447 | 68 | 331 | 0.0 | 0.9 | 0.05 | 1.15 | 1.15 | 99 | 1009.8 |
| 20260507153944 | 67 | 325 | 0.0 | 0.0 | 0.05 | 1.15 | 1.15 | 99 | 1009.6 |
| 20260507153441 | 67 | 4 | 0.9 | 1.7 | 0.00 | 1.14 | 1.14 | 99 | 1009.8 |
| 20260507152937 | 67 | 338 | 0.0 | 1.7 | 0.00 | 1.14 | 1.14 | 99 | 1010.1 |
| 20260507152433 | 67 | 76 | 2.6 | 5.2 | 0.07 | 1.14 | 1.14 | 99 | 1009.7 |
| 20260507151930 | 66 | 97 | 1.7 | 2.6 | 0.07 | 1.14 | 1.14 | 99 | 1009.8 |
| 20260507151426 | 66 | 5 | 0.0 | 0.9 | 0.12 | 1.13 | 1.13 | 99 | 1009.9 |
| 20260507150923 | 66 | 73 | 0.0 | 1.7 | 0.24 | 1.13 | 1.13 | 99 | 1009.9 |
| 20260507150420 | 66 | 18 | 0.9 | 1.7 | 0.12 | 1.10 | 1.10 | 99 | 1010.1 |
| 20260507145916 | 66 | 47 | 1.7 | 5.2 | 0.17 | 1.09 | 1.09 | 99 | 1010.4 |
| 20260507145412 | 66 | 352 | 2.6 | 6.1 | 0.31 | 1.07 | 1.07 | 99 | 1010.4 |
| 20260507144909 | 66 | 348 | 0.9 | 5.2 | 0.54 | 1.06 | 1.06 | 99 | 1010.4 |
| 20260507144406 | 66 | 339 | 3.5 | 8.7 | 0.40 | 1.00 | 1.00 | 99 | 1010.3 |
| 20260507143903 | 67 | 16 | 6.1 | 8.7 | 0.42 | 0.96 | 0.96 | 99 | 1010.4 |
| 20260507143401 | 67 | 294 | 0.0 | 0.0 | 0.42 | 0.93 | 0.93 | 99 | 1010.6 |
| 20260507142857 | 67 | 352 | 0.9 | 4.3 | 0.35 | 0.89 | 0.89 | 99 | 1010.6 |
| 20260507142353 | 67 | 309 | 2.6 | 2.6 | 0.35 | 0.86 | 0.86 | 99 | 1010.5 |
| 20260507141850 | 67 | 46 | 0.0 | 2.6 | 0.38 | 0.82 | 0.82 | 99 | 1010.5 |
| 20260507141346 | 67 | 127 | 0.9 | 5.2 | 0.24 | 0.79 | 0.79 | 99 | 1010.6 |
| 20260507140843 | 67 | 39 | 0.9 | 0.9 | 0.05 | 0.76 | 0.76 | 99 | 1010.7 |
| 20260507140340 | 68 | 53 | 2.6 | 5.2 | 0.07 | 0.75 | 0.75 | 99 | 1010.7 |
| 20260507135838 | 67 | 318 | 0.0 | 0.9 | 0.07 | 0.75 | 0.75 | 99 | 1010.6 |
| 20260507135334 | 68 | 15 | 0.9 | 0.9 | 0.00 | 0.74 | 0.74 | 99 | 1010.7 |
| 20260507134832 | 68 | 21 | 0.0 | 0.9 | 0.00 | 0.74 | 0.74 | 99 | 1010.7 |
| 20260507134328 | 68 | 335 | 0.0 | 0.9 | 0.00 | 0.74 | 0.74 | 99 | 1010.5 |
| 20260507133824 | 68 | 38 | 0.9 | 0.9 | 0.00 | 0.74 | 0.74 | 99 | 1010.6 |
| 20260507133319 | 68 | 77 | 0.0 | 0.9 | 0.00 | 0.74 | 0.74 | 99 | 1010.6 |
| 20260507132818 | 67 | 100 | 1.7 | 1.7 | 0.00 | 0.74 | 0.74 | 99 | 1010.3 |
| 20260507132314 | 67 | 4 | 0.9 | 1.7 | 0.00 | 0.74 | 0.74 | 99 | 1010.6 |
| 20260507131812 | 68 | 0 | 0.9 | 0.9 | 0.00 | 0.74 | 0.74 | 99 | 1010.6 |
| 20260507131308 | 68 | 40 | 0.0 | 2.6 | 0.00 | 0.74 | 0.74 | 99 | 1010.5 |
| 20260507130804 | 67 | 49 | 0.9 | 0.9 | 0.00 | 0.74 | 0.74 | 99 | 1010.4 |
| 20260507130303 | 67 | 0 | 0.9 | 2.6 | 0.00 | 0.74 | 0.74 | 99 | 1010.3 |
| 20260507125801 | 67 | 24 | 2.6 | 2.6 | 0.00 | 0.74 | 0.74 | 99 | 1010.3 |
| 20260507125258 | 67 | 87 | 0.9 | 1.7 | 0.00 | 0.74 | 0.74 | 99 | 1010.3 |
| 20260507124755 | 67 | 82 | 2.6 | 5.2 | 0.00 | 0.74 | 0.74 | 99 | 1010.4 |
| 20260507124251 | 67 | 320 | 0.0 | 0.9 | 0.00 | 0.74 | 0.74 | 99 | 1010.4 |
| 20260507123750 | 67 | 350 | 0.0 | 2.6 | 0.00 | 0.74 | 0.74 | 99 | 1010.5 |
| 20260507123247 | 67 | 130 | 2.6 | 4.3 | 0.00 | 0.74 | 0.74 | 99 | 1010.7 |
| 20260507122742 | 67 | 334 | 0.0 | 0.9 | 0.00 | 0.74 | 0.74 | 99 | 1010.6 |
| 20260507122238 | 67 | 327 | 0.9 | 0.9 | 0.00 | 0.74 | 0.74 | 99 | 1010.8 |
| 20260507121734 | 67 | 61 | 0.9 | 0.9 | 0.00 | 0.74 | 0.74 | 99 | 1010.8 |
| 20260507121230 | 67 | 287 | 0.9 | 0.9 | 0.00 | 0.74 | 0.74 | 99 | 1010.7 |
| 20260507120727 | 66 | 0 | 0.0 | 0.9 | 0.00 | 0.74 | 0.74 | 99 | 1010.9 |
| 20260507120224 | 66 | 334 | 0.0 | 0.0 | 0.00 | 0.74 | 0.74 | 99 | 1010.9 |
| 20260507115720 | 66 | 346 | 0.0 | 0.0 | 0.00 | 0.74 | 0.74 | 99 | 1010.9 |
| 20260507115216 | 66 | 333 | 0.0 | 0.0 | 0.00 | 0.74 | 0.74 | 99 | 1010.9 |
| 20260507114711 | 66 | 5 | 0.0 | 0.9 | 0.00 | 0.74 | 0.74 | 99 | 1011.2 |
| 20260507114209 | 66 | 2 | 0.0 | 0.0 | 0.00 | 0.74 | 0.74 | 99 | 1011.4 |
| 20260507113706 | 66 | 3 | 0.0 | 0.0 | 0.00 | 0.74 | 0.74 | 99 | 1011.3 |
| 20260507113203 | 66 | 3 | 0.0 | 0.0 | 0.00 | 0.74 | 0.74 | 99 | 1011.2 |
| 20260507112701 | 66 | 317 | 0.0 | 0.9 | 0.00 | 0.74 | 0.74 | 99 | 1011.1 |
| 20260507112157 | 66 | 311 | 0.0 | 0.9 | 0.00 | 0.74 | 0.74 | 99 | 1011.0 |
| 20260507111655 | 66 | 327 | 0.0 | 0.9 | 0.00 | 0.74 | 0.74 | 99 | 1011.4 |
| 20260507111152 | 66 | 49 | 0.0 | 0.0 | 0.00 | 0.74 | 0.74 | 99 | 1011.3 |
| 20260507110647 | 66 | 61 | 0.9 | 1.7 | 0.00 | 0.74 | 0.74 | 99 | 1011.4 |
| 20260507110144 | 66 | 47 | 0.0 | 2.6 | 0.00 | 0.74 | 0.74 | 99 | 1011.4 |
| 20260507105641 | 66 | 14 | 0.0 | 0.9 | 0.00 | 0.74 | 0.74 | 99 | 1011.1 |
| 20260507105137 | 66 | 337 | 0.0 | 0.0 | 0.05 | 0.74 | 0.74 | 99 | 1011.0 |
| 20260507104635 | 66 | 338 | 0.0 | 0.9 | 0.05 | 0.74 | 0.74 | 99 | 1011.1 |
| 20260507104131 | 66 | 341 | 0.0 | 0.0 | 0.07 | 0.73 | 0.73 | 99 | 1011.0 |
| 20260507103627 | 66 | 356 | 0.0 | 0.0 | 0.05 | 0.72 | 0.72 | 99 | 1010.9 |
| 20260507103124 | 66 | 39 | 0.0 | 1.7 | 0.00 | 0.71 | 0.71 | 99 | 1010.9 |
| 20260507102620 | 66 | 326 | 0.0 | 0.9 | 0.00 | 0.71 | 0.71 | 99 | 1010.7 |
| 20260507102116 | 66 | 337 | 0.0 | 0.0 | 0.07 | 0.71 | 0.71 | 99 | 1011.0 |
| 20260507101612 | 66 | 8 | 0.0 | 0.0 | 0.07 | 0.71 | 0.71 | 99 | 1011.1 |
| 20260507101108 | 66 | 38 | 0.9 | 1.7 | 0.00 | 0.70 | 0.70 | 99 | 1011.2 |
| 20260507100606 | 66 | 45 | 0.0 | 0.0 | 0.05 | 0.70 | 0.70 | 99 | 1011.1 |
| 20260507100104 | 66 | 26 | 0.0 | 0.0 | 0.05 | 0.70 | 0.70 | 99 | 1010.8 |
| 20260507095602 | 66 | 2 | 0.0 | 1.7 | 0.00 | 0.69 | 0.69 | 99 | 1010.8 |
| 20260507095058 | 66 | 337 | 0.9 | 5.2 | 0.07 | 0.69 | 0.69 | 99 | 1010.8 |
| 20260507094554 | 66 | 332 | 0.0 | 0.0 | 0.07 | 0.69 | 0.69 | 99 | 1010.8 |
| 20260507094046 | 66 | 352 | 0.0 | 0.0 | 0.00 | 0.68 | 0.68 | 99 | 1010.9 |
| 20260507093543 | 66 | 46 | 0.0 | 2.6 | 0.00 | 0.68 | 0.68 | 99 | 1010.9 |
| 20260507093042 | 66 | 57 | 0.9 | 0.9 | 0.00 | 0.68 | 0.68 | 99 | 1010.8 |
| 20260507092537 | 66 | 324 | 0.0 | 0.0 | 0.05 | 0.68 | 0.68 | 99 | 1010.7 |
| 20260507092035 | 66 | 349 | 0.0 | 1.7 | 0.00 | 0.67 | 0.67 | 99 | 1010.9 |
| 20260507091531 | 66 | 4 | 3.5 | 5.2 | 0.00 | 0.67 | 0.67 | 99 | 1010.9 |
| 20260507091027 | 66 | 37 | 1.7 | 2.6 | 0.00 | 0.67 | 0.67 | 99 | 1010.7 |
| 20260507090523 | 66 | 337 | 0.0 | 0.0 | 0.00 | 0.67 | 0.67 | 99 | 1010.9 |
| 20260507090020 | 66 | 50 | 1.7 | 2.6 | 0.00 | 0.67 | 0.67 | 99 | 1010.8 |
| 20260507085518 | 66 | 337 | 0.0 | 0.0 | 0.00 | 0.67 | 0.67 | 99 | 1010.9 |
| 20260507085014 | 66 | 319 | 0.0 | 0.9 | 0.07 | 0.67 | 0.67 | 99 | 1010.8 |
| 20260507084511 | 66 | 73 | 0.9 | 1.7 | 0.19 | 0.67 | 0.67 | 99 | 1011.2 |
| 20260507084008 | 66 | 41 | 0.0 | 0.0 | 0.24 | 0.66 | 0.66 | 99 | 1011.1 |
| 20260507083504 | 66 | 49 | 0.9 | 1.7 | 0.31 | 0.64 | 0.64 | 99 | 1011.6 |
| 20260507083001 | 66 | 339 | 0.0 | 0.9 | 0.17 | 0.61 | 0.61 | 99 | 1011.4 |
| 20260507082457 | 66 | 70 | 0.9 | 1.7 | 0.12 | 0.59 | 0.59 | 99 | 1011.7 |
| 20260507081953 | 66 | 343 | 0.0 | 1.7 | 0.00 | 0.57 | 0.57 | 99 | 1011.8 |
| 20260507081450 | 66 | 321 | 0.9 | 0.9 | 0.05 | 0.57 | 0.57 | 99 | 1011.5 |
| 20260507080947 | 66 | 75 | 0.0 | 0.9 | 0.12 | 0.57 | 0.57 | 99 | 1011.2 |
| 20260507080443 | 66 | 155 | 0.9 | 0.9 | 0.07 | 0.56 | 0.56 | 99 | 1011.6 |
| 20260507075938 | 66 | 295 | 0.9 | 1.7 | 0.07 | 0.55 | 0.55 | 99 | 1010.8 |
| 20260507075435 | 66 | 246 | 0.0 | 0.0 | 0.05 | 0.54 | 0.54 | 99 | 1011.7 |
| 20260507074931 | 66 | 245 | 0.0 | 0.0 | 0.05 | 0.54 | 0.54 | 99 | 1011.8 |
| 20260507074428 | 66 | 244 | 0.0 | 0.0 | 0.00 | 0.53 | 0.53 | 99 | 1011.6 |
| 20260507073926 | 66 | 245 | 0.0 | 0.0 | 0.07 | 0.53 | 0.53 | 99 | 1011.7 |
| 20260507073422 | 66 | 121 | 0.0 | 1.7 | 0.07 | 0.53 | 0.53 | 99 | 1011.7 |
| 20260507072919 | 65 | 310 | 0.0 | 0.9 | 0.05 | 0.52 | 0.52 | 99 | 1011.7 |
| 20260507072417 | 65 | 331 | 0.0 | 0.0 | 0.12 | 0.52 | 0.52 | 99 | 1011.7 |
| 20260507071915 | 65 | 336 | 0.0 | 0.0 | 0.07 | 0.51 | 0.51 | 99 | 1011.7 |
| 20260507071411 | 65 | 337 | 0.0 | 0.0 | 0.00 | 0.50 | 0.50 | 99 | 1011.8 |
| 20260507070907 | 65 | 333 | 0.0 | 0.0 | 0.00 | 0.50 | 0.50 | 99 | 1012.0 |
| 20260507070405 | 65 | 333 | 0.0 | 0.0 | 0.00 | 0.50 | 0.50 | 99 | 1012.1 |
| 20260507065901 | 65 | 333 | 0.0 | 0.0 | 0.00 | 0.50 | 0.50 | 99 | 1012.2 |
| 20260507065358 | 65 | 333 | 0.0 | 0.0 | 0.00 | 0.50 | 0.50 | 99 | 1012.1 |